Theta_e
303 299 298 300 300 301 301 303 303 302 299 299 300 298 300 300 300 299 300 300 301 302 303 304 303 304 305 306 306 304 304 304 304 303 302 301 301 300 299 298 298 297 297 296
300 300 300 300 300 301 302 301 300 300 298 298 296 297 298 297 298 300 300 301 301 301 301 302 303 303 304 305 306 304 304 304 303 302 301 300 299 299 298 298 298 298 296 294
301 301 300 301 299 302 299 300 300 300 298 294 293 300 299 298 298 299 300 301 300 300 301 301 301 302 302 304 305 304 304 304 302 301 300 299 299 298 298 298 298 297 295 294
300 300 301 300 299 298 301 298 298 298 295 298 293 301 298 296 297 298 299 300 301 300 301 301 301 302 302 304 304 304 304 302 301 299 299 299 298 298 298 297 297 295 294 294
299 299 299 299 299 297 300 296 297 294 289 292 294 293 298 297 300 298 298 299 301 300 301 301 301 302 303 303 303 303 302 300 299 298 298 298 298 297 296 296 295 294 294 294
298 297 297 298 297 297 295 294 292 290 287 293 287 292 300 301 299 296 298 298 299 300 300 301 301 302 302 302 302 302 300 298 298 299 298 298 297 296 295 295 294 294 294 294
296 298 296 297 298 297 292 289 291 294 293 297 279 292 299 299 296 297 295 297 298 299 300 300 301 301 301 301 302 300 298 298 298 298 298 297 296 294 294 294 294 294 294 294
290 293 292 296 297 296 295 289 292 290 295 294 280 293 300 296 296 296 296 297 298 298 299 299 299 299 300 300 299 298 297 298 298 298 297 296 295 294 294 294 294 294 294 293
291 294 294 295 295 293 293 290 290 284 275 287 289 292 295 296 292 294 296 298 298 298 298 299 299 299 298 298 298 297 297 298 299 298 297 296 295 294 295 295 295 294 293 293
294 291 289 294 294 292 291 290 292 287 291 290 289 283 296 291 291 289 293 295 297 297 298 298 298 298 298 298 298 298 298 299 299 298 297 296 295 295 296 295 295 294 293 294
289 287 289 294 288 289 289 288 288 288 291 292 290 295 288 288 285 287 292 294 296 296 297 296 297 298 298 298 298 298 298 299 300 298 298 296 295 296 296 295 295 294 293 294
295 292 289 289 292 292 292 289 291 293 288 285 290 293 289 286 288 290 294 295 296 295 295 296 296 296 297 297 298 298 298 297 299 300 298 298 296 296 297 295 294 293 293 294
296 287 284 289 289 290 291 292 289 287 290 288 292 294 284 286 291 292 292 294 293 294 295 296 296 296 296 296 297 297 297 298 298 297 299 297 297 297 297 295 293 293 292 293
297 293 287 289 288 286 291 292 291 290 286 291 294 291 289 291 288 291 291 291 292 294 295 294 295 295 295 295 295 296 297 297 297 298 297 297 297 296 296 294 293 293 292 292
293 289 292 290 284 284 289 289 289 289 290 294 295 293 284 283 283 289 289 289 289 292 295 294 294 293 292 293 294 295 295 296 296 297 297 298 297 295 295 294 293 293 292 292
294 287 289 288 292 294 295 294 291 293 294 291 294 295 284 290 288 288 287 288 289 290 293 294 293 291 289 290 290 291 293 294 296 296 297 298 297 295 294 294 293 293 292 291
293 286 284 285 285 284 288 288 293 289 284 291 289 288 285 281 286 287 287 288 288 290 292 290 289 289 289 288 288 290 291 293 293 296 297 298 295 295 294 293 292 293 291 291
292 289 282 286 280 285 288 288 288 289 289 282 283 281 285 286 287 287 288 288 288 289 288 288 288 288 289 289 288 290 291 291 292 295 297 298 295 294 293 291 291 292 291 291
294 294 288 285 276 286 291 290 291 290 289 287 286 284 286 286 287 287 288 288 287 287 287 288 288 287 288 289 289 290 289 288 292 294 296 296 293 294 292 291 291 291 290 291
289 292 294 280 284 285 288 289 289 290 289 287 287 286 286 286 287 287 288 288 288 288 288 287 287 287 288 289 289 289 289 288 291 294 291 293 292 290 291 291 291 290 290 290
291 292 293 291 289 286 288 289 288 287 289 287 287 286 286 286 286 287 286 286 287 287 287 287 287 287 287 288 288 288 288 288 288 295 292 290 291 290 290 290 289 289 290 290
285 285 283 284 289 289 289 286 287 288 288 287 287 286 286 286 286 286 286 286 287 287 287 287 286 286 288 286 286 287 287 288 288 294 293 291 291 290 290 289 289 289 289 290
285 285 285 287 287 288 288 288 288 288 286 286 286 286 286 286 286 286 286 286 286 287 286 286 286 285 287 286 285 287 287 288 288 291 294 293 291 291 290 289 289 288 289 289
285 287 285 285 285 287 289 288 288 288 288 287 286 286 286 286 286 286 286 286 286 286 285 285 284 283 284 285 284 286 286 287 287 288 294 295 291 291 291 289 288 288 288 290
286 284 280 284 286 288 289 288 288 288 287 286 286 286 286 285 285 285 285 286 286 285 284 283 282 281 282 281 283 285 286 286 287 288 291 295 294 291 291 290 290 290 290 289
288 287 286 288 288 288 288 288 288 287 286 286 287 287 286 285 285 285 285 285 285 284 283 282 281 280 280 280 282 284 286 286 287 288 291 294 294 292 291 291 291 290 289 288
Wind_Speed
5 7 3 2 2 1 2 2 1 1 3 5 2 9 19 17 16 19 21 15 13 15 19 25 21 22 24 24 22 19 19 18 16 16 16 16 15 15 15 17 19 21 22 22
6 4 2 1 4 4 5 2 3 3 3 2 6 16 12 6 4 3 6 9 12 14 13 13 26 22 22 24 21 19 18 17 16 16 17 17 16 16 17 18 20 21 21 20
6 0 3 3 6 4 3 3 2 3 6 3 8 7 5 3 5 5 6 9 12 13 9 5 12 23 18 21 20 17 16 15 15 16 17 17 18 19 19 20 21 21 20 19
6 4 3 4 5 2 2 2 2 3 4 2 5 4 7 6 9 6 8 7 12 12 7 3 4 13 16 18 17 15 15 15 15 15 16 19 20 21 20 20 19 19 18 19
3 4 5 7 2 2 2 3 3 2 4 3 7 4 7 5 5 6 14 13 10 11 8 2 3 9 13 15 15 14 14 14 14 16 18 21 22 22 20 19 18 18 19 21
3 2 3 2 2 3 3 3 5 3 3 3 3 3 6 2 3 7 11 15 15 10 7 3 3 8 11 14 14 14 14 13 14 18 20 21 22 20 20 19 18 19 20 21
5 3 2 3 1 1 4 6 3 5 4 4 3 2 9 5 6 5 11 21 21 13 10 7 4 5 10 13 15 16 15 14 17 19 21 21 19 20 19 18 19 20 21 21
4 6 4 6 3 3 4 5 5 4 1 4 3 4 4 2 12 16 11 17 19 17 12 10 8 7 10 14 17 18 16 18 21 23 22 20 19 19 18 19 20 21 22 22
4 2 2 4 2 2 3 3 3 7 1 3 2 7 9 3 2 17 27 33 33 31 30 25 19 16 15 16 20 21 22 24 26 25 24 21 20 19 19 21 21 22 22 22
4 3 2 2 2 7 4 3 4 3 1 4 4 5 5 4 6 6 14 23 30 34 36 27 24 19 18 20 25 29 29 27 26 26 24 22 20 20 21 22 22 23 22 21
4 4 5 1 2 6 2 2 5 3 3 5 2 6 7 7 6 1 11 26 32 34 31 31 26 22 19 18 20 23 29 31 28 25 23 22 22 21 23 24 23 23 22 21
1 4 2 6 1 1 4 5 3 4 5 1 2 7 4 7 5 3 24 29 31 30 31 26 23 22 21 20 20 22 25 29 33 28 25 22 24 23 26 25 24 23 22 20
4 2 3 7 4 4 3 4 4 3 2 6 4 5 2 2 3 13 18 29 31 29 25 23 24 25 25 27 26 25 25 27 28 38 34 29 28 31 30 27 24 23 21 20
5 3 7 6 6 4 3 4 5 5 3 4 12 8 6 11 13 23 28 28 30 25 19 22 25 29 32 34 35 35 31 26 28 30 35 42 40 37 34 28 26 23 22 20
4 4 2 5 5 3 6 6 7 10 8 8 17 14 4 5 3 13 24 32 32 29 24 26 31 37 40 41 41 40 40 37 35 32 33 37 40 40 37 32 27 23 22 20
1 3 1 5 6 8 14 11 14 19 17 14 19 30 2 7 17 25 30 31 30 31 29 32 38 45 49 43 42 42 43 43 46 39 36 35 37 39 40 34 28 24 22 20
4 4 2 6 4 6 9 13 18 5 4 8 8 7 2 6 17 22 28 26 29 29 28 36 44 48 46 43 40 41 43 47 47 48 37 35 34 38 41 35 28 24 22 20
5 5 2 4 4 2 7 3 4 9 6 6 2 3 9 17 22 24 15 19 23 27 37 43 44 45 45 43 41 40 40 43 47 50 38 33 29 30 36 33 28 24 22 19
7 4 1 2 3 8 6 5 6 5 3 5 4 5 12 19 21 5 21 28 36 40 43 46 45 43 44 44 40 41 45 43 43 46 37 28 26 27 32 32 27 24 22 19
1 3 4 2 3 6 5 3 0 4 4 7 10 9 13 19 11 9 31 40 43 45 46 47 48 48 45 47 39 44 46 41 39 38 31 25 27 31 33 30 26 23 22 20
4 3 15 8 6 9 6 6 6 4 2 8 14 16 19 7 18 35 40 40 43 45 47 47 47 48 50 46 41 46 45 39 40 33 28 22 22 29 31 29 26 25 22 21
7 6 4 2 4 10 9 4 6 1 15 15 15 22 24 27 33 37 42 43 46 47 50 49 43 50 54 42 38 46 45 35 37 30 25 22 21 25 29 30 29 26 24 23
3 6 4 9 7 1 10 5 7 14 15 16 25 31 33 36 38 41 44 47 48 49 48 45 46 54 54 48 39 43 41 34 34 36 24 26 22 24 27 30 29 27 26 24
4 9 4 1 4 9 13 14 26 29 33 36 32 32 35 38 41 44 48 48 45 49 48 42 44 45 52 52 46 38 37 37 32 35 31 26 24 24 27 30 28 28 27 25
6 6 4 9 13 28 29 26 21 27 31 30 29 29 35 39 42 44 46 49 48 49 50 47 45 44 51 50 47 40 36 35 32 32 30 27 27 25 26 26 27 27 25 20
18 8 6 11 18 18 22 27 28 31 34 28 29 34 39 43 41 44 48 48 46 48 49 50 50 45 51 48 42 40 32 33 34 30 26 27 25 26 26 25 25 25 23 22
Wind_Direction
27 67 77 5 12 65 104 82 339 18 359 337 332 286 284 300 274 279 288 289 287 279 267 243 236 228 225 222 223 227 228 233 240 254 267 274 278 280 282 287 293 298 303 306
31 77 321 87 29 81 56 89 336 295 21 346 352 292 290 303 277 293 316 324 324 314 300 260 228 226 224 226 226 226 226 231 241 254 264 267 275 279 283 287 293 297 301 303
103 159 344 109 35 53 44 104 15 253 330 76 320 301 322 317 333 320 313 330 344 340 333 304 224 215 229 220 220 224 225 230 244 253 260 270 278 283 286 288 290 295 299 302
76 345 59 71 73 33 72 344 33 12 38 289 10 276 304 345 333 16 8 356 359 2 351 333 209 205 207 206 212 214 220 237 249 252 266 277 281 284 286 284 286 292 296 302
257 21 41 61 12 16 131 46 62 70 84 59 351 74 272 357 12 5 12 3 355 2 4 354 203 192 193 197 204 212 226 237 243 264 278 282 285 286 283 284 287 291 298 305
108 60 58 110 89 66 107 82 41 58 86 39 271 85 294 358 334 320 331 349 354 349 355 359 213 201 202 204 209 221 227 237 265 277 283 285 285 281 280 281 284 291 298 302
357 7 359 44 117 51 65 55 349 2 10 212 331 15 244 288 306 277 325 352 359 352 347 336 315 243 225 221 226 223 230 263 281 286 286 286 281 278 277 280 286 292 298 300
128 334 5 348 73 168 55 132 144 207 271 273 355 237 241 144 339 42 48 15 18 15 359 349 329 290 259 243 234 232 256 280 290 294 291 283 281 278 276 281 287 292 295 298
123 303 323 28 27 62 243 57 160 103 65 33 271 290 315 115 81 40 51 34 32 33 27 10 351 324 296 272 259 260 273 286 293 294 289 282 281 279 280 283 287 291 294 297
197 55 256 265 58 38 131 144 53 10 88 294 286 275 238 312 347 1 33 21 18 3 356 359 355 337 321 310 288 278 276 284 291 292 288 281 274 274 277 280 285 289 291 293
129 90 282 108 191 181 22 16 44 115 127 176 242 263 215 208 209 186 347 17 9 360 358 353 348 345 338 308 297 291 280 280 284 289 285 276 272 273 275 277 282 286 287 290
88 131 182 217 285 211 158 189 156 129 255 214 152 270 199 218 205 41 14 5 356 352 345 347 349 348 345 334 313 301 282 275 269 279 276 271 269 270 274 271 275 281 284 286
181 329 15 342 357 348 220 204 144 122 89 202 157 251 335 260 97 6 6 2 354 350 347 349 355 356 352 350 349 337 310 292 281 263 270 265 266 279 274 266 268 276 281 284
151 152 172 197 210 137 185 201 198 145 140 196 229 268 322 328 357 3 358 352 352 348 353 348 343 341 339 337 336 336 338 324 295 275 266 261 263 273 267 259 261 269 276 278
112 198 234 257 204 194 211 196 198 203 198 208 265 253 215 256 278 346 345 342 339 337 325 327 330 333 331 328 326 326 327 326 322 290 275 260 259 259 256 251 253 261 269 272
76 257 88 278 285 254 268 241 221 233 239 255 267 276 208 5 342 336 337 332 326 325 319 320 320 318 318 316 318 320 321 324 322 305 280 274 265 252 245 244 244 253 262 266
155 133 70 270 345 334 299 236 222 194 198 210 223 253 322 320 320 323 320 319 314 317 316 316 313 313 313 311 313 316 317 316 319 315 286 276 271 250 237 235 237 246 255 258
151 124 119 258 17 307 245 201 183 197 227 214 353 279 296 303 314 308 314 318 317 312 307 309 312 313 313 311 308 313 313 313 314 315 287 274 274 237 230 228 233 241 248 252
215 164 271 208 195 300 278 178 177 181 251 138 178 268 309 319 316 275 320 320 314 309 308 308 309 308 309 308 304 306 308 311 314 312 292 267 255 231 224 229 233 239 244 245
136 243 189 95 185 241 234 226 345 104 254 184 356 322 320 335 320 317 316 318 316 316 314 311 311 309 306 306 305 302 301 304 307 313 299 266 248 239 233 233 234 237 240 240
168 192 220 219 243 279 239 206 138 115 235 310 318 317 316 296 287 299 307 306 309 309 309 311 306 302 304 305 304 297 297 295 305 307 297 279 252 241 235 235 234 236 237 237
172 157 190 143 218 274 164 118 173 124 326 314 312 320 302 299 306 305 306 304 306 307 311 310 301 304 307 298 294 295 291 293 303 296 289 286 264 244 235 231 231 231 233 236
271 192 192 191 212 137 177 231 251 305 298 305 314 313 304 303 303 308 305 305 303 307 306 304 301 305 303 301 294 295 288 293 296 282 281 293 272 250 238 233 230 228 232 236
246 215 224 42 242 239 275 286 294 304 315 311 306 304 307 301 304 302 307 304 298 302 302 300 301 296 295 299 297 293 288 289 291 292 283 288 273 252 241 231 228 229 234 235
199 167 208 260 277 282 280 282 279 293 302 298 301 303 308 308 303 303 302 301 299 301 305 303 300 294 292 298 294 292 284 285 284 286 272 274 270 252 241 231 232 233 236 239
223 228 221 256 264 269 285 286 288 288 292 290 298 304 309 307 298 299 302 301 296 299 302 301 300 292 295 299 291 288 281 278 285 279 267 267 258 248 240 231 230 229 231 229